GW4409 Weather Reports


time (UTC)temp
C
wind
direction
speed
KPH
gust
KPH
rain 1hr
cm
rain 24hr
cm
rain mn
cm
humidity
%
barometer
mb
20260506201404 18 255 4.8 11.3 0.00 0.74 0.64 85 1007.3
20260506200906 18 207 4.8 12.9 0.00 0.74 0.64 85 1007.2
20260506200405 18 224 4.8 14.5 0.00 0.74 0.64 86 1007.3
20260506195904 18 251 4.8 11.3 0.03 0.74 0.64 86 1007.3
20260506195404 17 254 4.8 11.3 0.03 0.74 0.64 86 1007.5
20260506194904 17 227 3.2 4.8 0.03 0.74 0.64 86 1007.5
20260506194404 17 111 3.2 12.9 0.03 0.74 0.64 86 1007.5
20260506192405 17 186 4.8 19.3 0.03 0.74 0.64 88 1007.7
20260506191904 17 221 3.2 12.9 0.03 0.74 0.64 88 1007.8
20260506191404 17 198 4.8 12.9 0.03 0.74 0.64 88 1007.9
20260506190905 17 168 6.4 12.9 0.03 0.74 0.64 88 1007.9
20260506190404 17 218 4.8 12.9 0.03 0.74 0.64 88 1007.9
20260506185904 17 192 4.8 12.9 0.00 0.74 0.61 89 1007.9
20260506185405 17 256 8.0 12.9 0.00 0.74 0.61 90 1007.9
20260506184405 17 199 4.8 12.9 0.00 0.74 0.61 91 1008.0
20260506183905 17 220 3.2 11.3 0.00 0.74 0.61 91 1008.0
20260506183404 17 257 4.8 12.9 0.00 0.74 0.61 90 1008.1
20260506182905 17 216 4.8 16.1 0.00 0.74 0.61 88 1008.1
20260506182404 17 199 4.8 16.1 0.03 0.74 0.64 88 1008.0
20260506181904 17 254 8.0 14.5 0.03 0.74 0.64 88 1008.0
20260506181404 17 218 4.8 14.5 0.03 0.74 0.64 89 1008.0
20260506180904 17 186 4.8 14.5 0.03 0.74 0.64 89 1008.1
20260506175905 17 193 6.4 12.9 0.08 0.74 0.66 89 1008.2
20260506175405 17 226 4.8 12.9 0.08 0.74 0.66 90 1008.4
20260506174904 17 239 3.2 9.7 0.10 0.74 0.66 91 1008.4
20260506174404 17 193 4.8 11.3 0.10 0.74 0.66 90 1008.3
20260506173904 17 235 8.0 14.5 0.10 0.74 0.66 90 1008.3
20260506173404 17 195 4.8 19.3 0.13 0.71 0.64 90 1008.5
20260506172904 16 201 8.0 14.5 0.15 0.71 0.64 91 1008.5
20260506172404 16 208 4.8 12.9 0.18 0.71 0.64 92 1008.6
20260506171404 17 202 4.8 14.5 0.18 0.69 0.61 92 1008.5
20260506170904 17 250 4.8 16.1 0.20 0.69 0.61 93 1008.4
20260506170404 17 216 6.4 16.1 0.20 0.64 0.56 93 1008.3
20260506165404 17 241 3.2 14.5 0.23 0.64 0.56 94 1008.4
20260506163405 16 197 4.8 12.9 0.25 0.58 0.51 95 1008.4
20260506162904 16 180 3.2 11.3 0.28 0.58 0.51 94 1008.7
20260506162404 16 207 1.6 11.3 0.30 0.53 0.46 95 1009.1
20260506161908 16 207 3.2 9.7 0.33 0.51 0.46 94 1009.3
20260506161404 16 222 4.8 12.9 0.36 0.51 0.43 94 1009.4
20260506160903 16 220 3.2 9.7 0.33 0.46 0.41 94 1009.6
20260506160405 16 162 4.8 11.3 0.33 0.43 0.38 94 1009.7
20260506155404 16 184 1.6 8.0 0.30 0.38 0.36 93 1009.8
20260506154405 16 216 3.2 11.3 0.28 0.33 0.30 90 1009.8
20260506153905 17 204 3.2 11.3 0.28 0.30 0.28 89 1009.7
20260506153403 17 220 4.8 12.9 0.25 0.25 0.25 87 1009.9
20260506152405 17 177 4.8 14.5 0.15 0.15 0.15 84 1009.8
20260506151904 17 254 4.8 11.3 0.13 0.13 0.13 81 1009.8
20260506150904 18 215 3.2 12.9 0.08 0.08 0.08 81 1009.5
20260506150403 18 209 8.0 12.9 0.05 0.05 0.05 80 1009.5
20260506145904 18 206 4.8 12.9 0.05 0.05 0.05 80 1009.6
20260506145403 18 231 3.2 9.7 0.05 0.05 0.05 80 1009.5
20260506144904 18 212 4.8 11.3 0.03 0.03 0.03 78 1009.7
20260506144404 18 224 4.8 12.9 0.03 0.03 0.03 76 1009.8
20260506143404 19 225 4.8 14.5 0.00 0.00 0.00 72 1009.8
20260506142906 19 241 3.2 16.1 0.00 0.00 0.00 71 1009.8
20260506142404 19 230 4.8 12.9 0.00 0.00 0.00 71 1009.8
20260506141903 19 240 8.0 12.9 0.00 0.00 0.00 71 1009.8
20260506141405 19 189 8.0 20.9 0.00 0.00 0.00 70 1009.7
20260506140904 20 204 6.4 20.9 0.00 0.00 0.00 70 1009.7
20260506140404 20 196 8.0 20.9 0.00 0.00 0.00 70 1009.5
20260506135904 20 181 8.0 14.5 0.00 0.00 0.00 70 1009.4
20260506135404 19 225 3.2 11.3 0.00 0.00 0.00 71 1009.4
20260506134904 19 223 6.4 20.9 0.00 0.00 0.00 72 1009.6
20260506134405 19 211 4.8 19.3 0.00 0.00 0.00 72 1009.6
20260506133904 19 274 4.8 11.3 0.00 0.00 0.00 72 1009.6
20260506133405 19 196 6.4 14.5 0.00 0.00 0.00 73 1009.6
20260506132904 19 193 8.0 14.5 0.00 0.00 0.00 72 1009.7
20260506132403 19 224 4.8 12.9 0.00 0.00 0.00 73 1009.6
20260506131905 19 203 4.8 16.1 0.00 0.00 0.00 73 1009.7
20260506131403 19 188 6.4 16.1 0.00 0.00 0.00 73 1009.7
20260506130404 19 223 6.4 12.9 0.00 0.00 0.00 73 1009.9
20260506125904 19 185 8.0 16.1 0.00 0.00 0.00 73 1009.8
20260506125403 19 203 8.0 16.1 0.00 0.00 0.00 72 1009.8
20260506124905 18 208 4.8 19.3 0.00 0.00 0.00 73 1009.7
20260506124403 18 195 6.4 19.3 0.00 0.00 0.00 74 1009.7
20260506123904 18 203 8.0 12.9 0.00 0.00 0.00 74 1009.9
20260506123403 18 227 4.8 12.9 0.00 0.00 0.00 75 1009.8
20260506122908 18 198 8.0 14.5 0.00 0.00 0.00 75 1009.7
20260506122404 18 213 4.8 16.1 0.00 0.00 0.00 75 1009.6
20260506121903 18 178 1.6 16.1 0.00 0.00 0.00 75 1009.6
20260506121404 18 205 8.0 12.9 0.00 0.00 0.00 76 1009.6
20260506120903 18 187 6.4 19.3 0.00 0.00 0.00 76 1009.7
20260506120405 18 193 4.8 19.3 0.00 0.00 0.00 76 1009.7
20260506115905 18 204 4.8 16.1 0.00 0.00 0.00 76 1009.8
20260506115404 18 207 4.8 12.9 0.00 0.00 0.00 77 1009.7
20260506114904 18 215 4.8 12.9 0.00 0.00 0.00 77 1009.7
20260506114405 18 174 4.8 20.9 0.00 0.00 0.00 77 1009.7
20260506113904 18 172 8.0 16.1 0.00 0.00 0.00 77 1009.7
20260506113404 18 183 4.8 12.9 0.00 0.00 0.00 77 1009.6
20260506112905 18 174 4.8 12.9 0.00 0.00 0.00 77 1009.8
20260506110903 18 195 8.0 19.3 0.00 0.00 0.00 77 1009.7
20260506105904 18 186 8.0 16.1 0.00 0.00 0.00 78 1009.8
20260506104903 18 180 4.8 19.3 0.00 0.00 0.00 78 1009.7
20260506104404 18 190 4.8 16.1 0.00 0.00 0.00 78 1009.6
20260506103903 17 163 6.4 12.9 0.00 0.00 0.00 78 1009.5
20260506103405 17 182 9.7 20.9 0.00 0.00 0.00 78 1009.5
20260506102905 17 196 4.8 12.9 0.00 0.00 0.00 78 1009.5
20260506102405 17 178 8.0 20.9 0.00 0.00 0.00 78 1009.4
20260506101905 17 185 4.8 16.1 0.00 0.00 0.00 79 1009.4
20260506101404 17 192 4.8 16.1 0.00 0.00 0.00 79 1009.4
20260506100903 17 178 6.4 16.1 0.00 0.00 0.00 78 1009.5
20260506100404 17 181 3.2 16.1 0.00 0.00 0.00 79 1009.5
20260506095904 17 175 9.7 16.1 0.00 0.00 0.00 79 1009.6
20260506095404 17 173 6.4 16.1 0.00 0.00 0.00 79 1009.5
20260506094404 18 179 4.8 16.1 0.00 0.00 0.00 78 1009.3
20260506093905 18 190 4.8 12.9 0.00 0.00 0.00 78 1009.3
20260506093405 18 158 6.4 19.3 0.00 0.00 0.00 78 1009.3
20260506092904 18 177 8.0 19.3 0.00 0.00 0.00 78 1009.3
20260506092403 18 192 4.8 11.3 0.00 0.00 0.00 78 1009.4
20260506091904 18 220 3.2 12.9 0.00 0.00 0.00 78 1009.4
20260506090904 18 173 4.8 14.5 0.00 0.00 0.00 78 1009.4
20260506090403 18 179 4.8 16.1 0.00 0.00 0.00 78 1009.5
20260506085903 18 179 4.8 11.3 0.00 0.00 0.00 78 1009.6
20260506085404 18 214 4.8 12.9 0.00 0.00 0.00 78 1009.6
20260506084903 18 189 3.2 9.7 0.00 0.00 0.00 78 1009.6
20260506084403 18 174 4.8 11.3 0.00 0.00 0.00 78 1009.5
20260506083909 18 183 8.0 16.1 0.00 0.00 0.00 78 1009.6
20260506083405 18 183 3.2 9.7 0.00 0.00 0.00 78 1009.6
20260506082905 18 192 4.8 14.5 0.00 0.00 0.00 78 1009.6
20260506081906 18 196 4.8 14.5 0.00 0.00 0.00 78 1009.6
20260506081405 18 188 8.0 14.5 0.00 0.00 0.00 78 1009.6
20260506080906 18 182 3.2 12.9 0.00 0.00 0.00 78 1009.7
20260506080407 18 185 4.8 12.9 0.00 0.00 0.00 78 1009.7
20260506073405 18 243 4.8 14.5 0.00 0.00 0.00 76 1009.7
20260506072906 18 176 4.8 12.9 0.00 0.00 0.00 76 1009.7
20260506071405 18 181 8.0 14.5 0.00 0.00 0.00 76 1009.8
20260506070906 18 189 4.8 14.5 0.00 0.00 0.00 76 1009.8
20260506070406 18 187 4.8 12.9 0.00 0.00 0.00 76 1009.8
20260506062405 19 184 4.8 16.1 0.00 0.00 0.00 74 1009.9
20260506061905 19 208 4.8 12.9 0.00 0.00 0.00 73 1009.9
20260506061405 19 234 4.8 14.5 0.00 0.00 0.00 73 1009.8
20260506060405 19 190 4.8 16.1 0.00 0.00 0.00 72 1009.9
20260506051408 20 183 1.6 9.7 0.00 0.00 0.00 70 1010.3
20260506050905 20 194 3.2 12.9 0.00 0.00 0.00 70 1010.4
20260506050405 20 176 4.8 11.3 0.00 0.00 0.00 69 1010.4
20260506044905 20 177 6.4 14.5 0.00 0.00 0.00 68 1010.6
20260506044406 20 236 4.8 11.3 0.00 0.00 0.00 68 1010.6
20260506043905 20 235 3.2 9.7 0.00 0.00 0.00 68 1010.6
20260506043405 20 170 4.8 12.9 0.00 0.00 0.00 67 1010.6
20260506042907 20 181 4.8 12.9 0.00 0.00 0.00 67 1010.6
20260506041905 20 172 1.6 11.3 0.00 0.00 0.00 66 1010.5
20260506041405 20 167 4.8 14.5 0.00 0.00 0.00 66 1010.5
20260506040904 20 174 3.2 11.3 0.00 0.00 0.00 65 1010.5
20260506040405 20 184 3.2 12.9 0.00 0.00 0.00 65 1010.5
20260506035905 20 180 4.8 12.9 0.00 0.00 0.00 64 1010.4
20260506035405 20 172 3.2 14.5 0.00 0.00 0.00 64 1010.4
20260506034905 20 181 4.8 16.1 0.00 0.00 0.00 64 1010.3
20260506034405 20 174 4.8 16.1 0.00 0.00 0.00 63 1010.3
20260506033904 20 198 3.2 12.9 0.00 0.00 0.00 63 1010.3
20260506033405 21 200 6.4 16.1 0.00 0.00 0.00 62 1010.3
20260506032905 21 151 4.8 14.5 0.00 0.00 0.00 63 1010.2
20260506032406 21 168 3.2 11.3 0.00 0.00 0.00 62 1010.3
20260506031905 21 177 4.8 19.3 0.00 0.00 0.00 62 1010.3
20260506031405 21 195 6.4 14.5 0.00 0.00 0.00 62 1010.3
20260506030905 21 188 6.4 20.9 0.00 0.00 0.00 62 1010.2
20260506030405 21 189 4.8 19.3 0.00 0.00 0.00 62 1010.4
20260506025905 21 188 8.0 14.5 0.00 0.00 0.00 61 1010.4
20260506025405 21 192 4.8 14.5 0.00 0.00 0.00 62 1010.4
20260506024905 21 202 4.8 12.9 0.00 0.00 0.00 61 1010.4
20260506024405 21 177 4.8 12.9 0.00 0.00 0.00 62 1010.5
20260506022905 21 170 3.2 12.9 0.00 0.00 0.00 61 1010.5
20260506022405 21 186 6.4 12.9 0.00 0.00 0.00 61 1010.4
20260506021405 21 204 4.8 12.9 0.00 0.00 0.00 61 1010.4
20260506020905 21 174 1.6 16.1 0.00 0.00 0.00 60 1010.5
20260506020406 21 182 3.2 16.1 0.00 0.00 0.00 60 1010.4
20260506015905 21 167 6.4 12.9 0.00 0.00 0.00 59 1010.4
20260506015405 21 191 8.0 16.1 0.00 0.00 0.00 58 1010.5
20260506014905 22 187 4.8 11.3 0.00 0.00 0.00 58 1010.4
20260506014404 22 207 6.4 12.9 0.00 0.00 0.00 56 1010.3
20260506013904 22 175 6.4 12.9 0.00 0.00 0.00 55 1010.3
20260506013405 22 187 3.2 11.3 0.00 0.00 0.00 54 1010.2
20260506012904 22 188 4.8 11.3 0.00 0.00 0.00 53 1010.1
20260506012406 22 179 4.8 11.3 0.00 0.00 0.00 52 1010.1
20260506011905 23 169 6.4 16.1 0.00 0.00 0.00 51 1010.0
20260506011406 23 175 3.2 12.9 0.00 0.00 0.00 50 1010.0
20260506010905 23 174 4.8 12.9 0.00 0.00 0.00 49 1009.9
20260506010404 23 178 4.8 14.5 0.00 0.00 0.00 48 1009.8
20260506005905 23 175 4.8 14.5 0.00 0.00 0.00 48 1009.8
20260506005406 23 184 6.4 19.3 0.00 0.00 0.00 46 1009.8
20260506004905 24 183 8.0 19.3 0.00 0.00 0.00 46 1009.7
20260506004404 24 179 1.6 9.7 0.00 0.00 0.00 46 1009.7
20260506003905 24 199 3.2 12.9 0.00 0.00 0.00 45 1009.6
20260506002405 24 179 4.8 16.1 0.00 0.00 0.00 44 1009.4
20260506001905 24 201 8.0 16.1 0.00 0.00 0.00 44 1009.4
20260506001406 24 197 8.0 19.3 0.00 0.00 0.00 44 1009.3
20260506000904 25 187 8.0 14.5 0.00 0.00 0.00 44 1009.3
20260506000404 25 202 4.8 19.3 0.00 0.00 0.00 44 1009.3
20260505235406 25 219 8.0 19.3 0.00 0.00 0.00 45 1009.1
20260505234904 25 208 3.2 12.9 0.00 0.00 0.00 45 1009.1
20260505234405 25 190 8.0 19.3 0.00 0.00 0.00 45 1009.1
20260505233905 25 183 6.4 16.1 0.00 0.00 0.00 45 1009.1
20260505233405 25 212 4.8 19.3 0.00 0.00 0.00 45 1009.1
20260505232904 25 210 3.2 19.3 0.00 0.00 0.00 45 1009.1
20260505232406 25 214 8.0 14.5 0.00 0.00 0.00 44 1009.0
20260505231904 25 205 6.4 19.3 0.00 0.00 0.00 44 1008.9
20260505231404 25 216 8.0 20.9 0.00 0.00 0.00 44 1008.9
20260505230904 25 186 6.4 14.5 0.00 0.00 0.00 44 1008.9
20260505230406 26 226 8.0 19.3 0.00 0.00 0.00 43 1008.8
20260505225906 26 225 3.2 16.1 0.00 0.00 0.00 43 1008.9
20260505225406 26 273 8.0 14.5 0.00 0.00 0.00 42 1008.8
20260505224904 26 203 8.0 24.1 0.00 0.00 0.00 40 1008.8
20260505224405 26 217 6.4 19.3 0.00 0.00 0.00 39 1008.7
20260505223904 26 215 8.0 22.5 0.00 0.00 0.00 39 1008.7
20260505223404 27 221 8.0 16.1 0.00 0.00 0.00 39 1008.6
20260505222904 27 184 9.7 14.5 0.00 0.00 0.00 38 1008.5
20260505222404 27 181 6.4 19.3 0.00 0.00 0.00 38 1008.4
20260505221906 27 209 6.4 14.5 0.00 0.00 0.00 38 1008.5
20260505221404 27 220 4.8 12.9 0.00 0.00 0.00 38 1008.5
20260505220905 27 199 4.8 14.5 0.00 0.00 0.00 38 1008.4
20260505220404 27 180 6.4 16.1 0.00 0.00 0.00 38 1008.5
20260505215905 27 201 8.0 20.9 0.00 0.00 0.00 37 1008.6
20260505215405 27 224 6.4 16.1 0.00 0.00 0.00 37 1008.4
20260505214907 27 218 6.4 16.1 0.00 0.00 0.00 36 1008.4
20260505214405 27 171 6.4 14.5 0.00 0.00 0.00 36 1008.3
20260505213405 27 214 8.0 16.1 0.00 0.00 0.00 36 1008.5
20260505212905 27 193 8.0 20.9 0.00 0.00 0.00 36 1008.4
20260505212404 27 222 8.0 19.3 0.00 0.00 0.00 36 1008.3
20260505211904 27 212 8.0 14.5 0.00 0.00 0.00 36 1008.4
20260505211405 27 180 8.0 20.9 0.00 0.00 0.00 35 1008.5
20260505210904 27 248 6.4 16.1 0.00 0.00 0.00 35 1008.4
20260505210404 27 212 8.0 16.1 0.00 0.00 0.00 35 1008.3
20260505205904 27 194 6.4 24.1 0.00 0.00 0.00 34 1008.4
20260505205404 27 208 4.8 12.9 0.00 0.00 0.00 35 1008.3
20260505204905 27 222 6.4 20.9 0.00 0.00 0.00 34 1008.3
20260505204405 27 226 8.0 20.9 0.00 0.00 0.00 34 1008.3
20260505203905 27 262 4.8 14.5 0.00 0.00 0.00 34 1008.2
20260505203404 27 228 8.0 19.3 0.00 0.00 0.00 34 1008.2
20260505202904 27 183 8.0 14.5 0.00 0.00 0.00 35 1008.1
20260505202404 27 234 6.4 14.5 0.00 0.00 0.00 35 1008.2
20260505201904 27 211 8.0 16.1 0.00 0.00 0.00 36 1008.3